Location: Unspecified
(51.0000°N, 12.0000°E)
Time: 04:29:04
(UTC+02:00)

XW-2F - Visible Passes

Search period start: 24 September 2018 00:00
Search period end: 04 October 2018 00:00
Orbit: 504 x 527 km, 97.5° (Epoch: 23 September)

Date Brightness Start Highest point End Pass type
(mag) Time Alt. Az. Time Alt. Az. Time Alt. Az.
26 Sep ? 06:28:03 10° NE 06:30:43 18° E 06:33:23 10° SE visible
27 Sep ? 06:13:55 10° ENE 06:15:44 13° E 06:17:33 10° ESE visible
29 Sep ? 19:37:39 10° WSW 19:39:43 14° W 19:41:48 10° NW visible
30 Sep ? 19:21:56 10° SW 19:24:43 20° W 19:27:32 10° NW visible
02 Oct ? 06:32:51 10° NE 06:35:45 20° E 06:38:38 10° SE visible
03 Oct ? 06:18:33 10° NE 06:20:45 15° E 06:22:57 10° SE visible
